EST,Max TemperatureF,Mean TemperatureF,Min TemperatureF,Max Dew PointF,MeanDew PointF,Min DewpointF,Max Humidity, Mean Humidity, Min Humidity, Max Sea Level PressureIn, Mean Sea Level PressureIn, Min Sea Level PressureIn, Max VisibilityMiles, Mean VisibilityMiles, Min VisibilityMiles, Max Wind SpeedMPH, Mean Wind SpeedMPH, Max Gust SpeedMPH,PrecipitationIn, CloudCover, Events, WindDirDegrees
2012-11-1,62,51,39,41,33,28,76,53,29,29.90,29.83,29.78,10,10,10,14,5,22,0.00,0,,287
2012-11-2,72,54,36,51,38,29,89,59,28,29.97,29.91,29.82,10,10,10,17,4,23,0.00,1,,265
2012-11-3,67,54,40,46,39,32,96,63,29,30.12,30.05,29.98,10,10,10,12,3,15,0.00,0,,17
2012-11-4,78,63,47,62,55,45,96,72,47,30.06,29.97,29.91,10,10,4,16,7,20,0.24,2,Rain,139
2012-11-5,62,54,45,48,42,37,93,70,46,30.09,30.03,29.94,10,10,8,16,7,20,0.05,2,Rain,29
2012-11-6,51,47,42,41,38,35,83,75,66,30.06,29.97,29.89,10,10,6,18,10,25,0.02,5,Rain,22
2012-11-7,57,46,35,40,36,33,100,77,54,29.95,29.89,29.83,10,9,2,13,4,20,0.00,1,,347
2012-11-8,62,47,32,37,33,27,100,64,27,30.12,30.04,29.95,10,8,2,13,3,17,0.00,0,,306
2012-11-9,62,49,35,41,34,27,93,60,27,30.28,30.23,30.12,10,10,8,12,3,15,0.00,0,,355
2012-11-10,66,51,36,48,41,36,100,72,44,30.40,30.34,30.29,10,6,1,9,2,13,0.00,0,,185
2012-11-11,73,58,43,58,51,43,100,79,57,30.48,30.42,30.39,10,8,2,16,7,22,0.00,0,,68
2012-11-12,76,66,56,63,60,55,100,82,64,30.39,30.31,30.21,10,9,1,15,5,20,0.01,1,,90
2012-11-13,73,61,48,63,57,45,100,84,67,30.33,30.22,30.17,10,8,2,20,7,28,0.10,7,Rain,35
2012-11-14,54,50,45,43,42,39,86,76,66,30.38,30.33,30.30,10,10,7,20,12,25,T,8,Rain,29
2012-11-15,49,46,42,47,43,39,100,90,80,30.30,30.22,30.16,10,6,2,18,9,22,0.85,8,Rain,15
2012-11-16,60,52,44,46,44,39,100,77,53,30.34,30.26,30.21,10,8,3,16,8,21,0.00,4,,23
2012-11-17,57,50,43,46,42,35,83,73,62,30.37,30.33,30.31,10,10,10,20,13,26,0.00,5,,30
2012-11-18,56,53,50,52,50,45,93,82,71,30.31,30.23,30.17,10,7,2,25,16,39,0.89,7,Rain,19
2012-11-19,60,57,53,52,49,48,89,81,72,30.18,30.14,30.09,10,10,9,23,14,32,0.01,7,Rain,14
2012-11-20,63,57,51,50,49,47,89,77,65,30.12,30.08,30.03,10,9,7,15,8,21,0.00,5,,8
2012-11-21,63,54,44,46,42,36,93,72,51,30.13,30.08,30.04,10,10,7,16,7,26,0.00,0,,10
2012-11-22,64,52,39,39,35,31,85,58,30,30.18,30.14,30.10,10,10,10,20,6,24,0.00,0,,359
2012-11-23,66,50,33,49,39,30,96,64,31,30.16,30.05,29.90,10,10,10,14,5,16,0.00,0,,233
2012-11-24,58,48,37,44,32,25,82,56,30,30.12,30.00,29.89,10,10,10,16,6,26,0.00,0,,333
2012-11-25,51,39,26,38,28,21,92,63,34,30.22,30.15,30.10,10,10,4,9,3,13,0.00,0,,171
2012-11-26,62,48,33,44,37,32,100,68,36,30.25,30.17,30.14,10,5,0,12,3,14,0.00,0,Fog,214
2012-11-27,63,50,36,52,45,35,100,70,39,30.21,30.17,30.11,10,8,2,14,2,16,0.16,5,Rain,254
2012-11-28,56,44,32,48,39,32,100,72,43,30.40,30.29,30.17,10,7,2,16,6,22,0.00,3,,17
2012-11-29,56,42,28,37,31,27,100,69,38,30.49,30.42,30.38,10,5,0,10,2,14,0.00,0,Fog,62
2012-11-30,62,46,29,47,38,28,100,70,39,30.42,30.37,30.33,10,6,1,8,2,12,0.00,0,,122